Regional Weather Roundup
Issued by NWS

Home | Current Version | Previous Version | Graphics & Text | Print | Product List | Glossary On
Versions: 1 2 3 4 5 6 7 8 9 10 11 12 13 14 15 16 17 18 19 20 21 22 23 24 25 26 27 28 29 30 31 32 33 34 35 36 37 38 39 40 41 42 43 44 45 46 47 48 49 50
000
ASUS43 KLMK 071702
RWRKY
KENTUCKY REGIONAL WEATHER ROUNDUP
NATIONAL WEATHER SERVICE LOUISVILLE KY
1200 PM EST WED DEC 07 2016

NOTE "FAIR" INDICATES FEW OR NO CLOUDS BELOW 12,000 FEET
WITH NO SIGNIFICANT WEATHER AND/OR OBSTRUCTIONS TO VISIBILITY.

KYZ001>023-026-027-061>063-070>075-071800-
WESTERN AND SOUTH CENTRAL KENTUCKY

CITY           SKY/WX    TMP DP  RH WIND       PRES   REMARKS
PADUCAH        SUNNY     42  22  44 NE9       30.21F
HENDERSON      MOSUNNY   37  19  48 E5        30.21F WCI  34
OWENSBORO      MOSUNNY   38  23  55 NE7       30.21F WCI  33
HOPKINSVILLE   SUNNY     42  30  62 N8        30.18F
BOWLING GREEN  MOSUNNY   44  33  65 N6        30.19F
GLASGOW        NOT AVBL
$$

KYZ024-025-028>034-038-045-046-053-071800-
NORTH CENTRAL KENTUCKY

CITY           SKY/WX    TMP DP  RH WIND       PRES   REMARKS
LOUISVILLE/SDF CLOUDY    41  22  46 CALM      30.19F
LOUISVILLE/LOU CLOUDY    40  24  53 CALM      30.20F
FORT KNOX      PTSUNNY   38  26  60 E2        30.17F
$$

KYZ035>037-039>044-047>052-055>060-089>105-071800-
NORTHEAST KENTUCKY

CITY           SKY/WX    TMP DP  RH WIND       PRES   REMARKS
LEXINGTON      PTSUNNY   42  27  55 VRB3      30.17F
COVINGTON      PTSUNNY   36  23  59 SW7       30.16F WCI  30
FRANKFORT      PTSUNNY   41  27  57 CALM      30.17F
$$

KYZ054-064>069-076>088-106>120-071800-
SOUTHEAST KENTUCKY

CITY           SKY/WX    TMP DP  RH WIND       PRES   REMARKS
JACKSON        SUNNY     42  32  67 NW3       30.14F
LONDON         CLOUDY    39  32  76 E6        30.15F WCI  35
SOMERSET       PTSUNNY   39  32  75 CALM      30.16F
MIDDLESBORO    MOSUNNY   47  37  68 N5        30.11F
MONTICELLO     CLOUDY    41  34  76 N12       30.17F
$$





USA.gov is the U.S. government's official web portal to all federal, state and local government web resources and services.